Location: Champs
(48.8539°N, 2.6040°E)
Time: 12:39:44
(UTC+00:00)

Cosmos 1538 Rocket - Pass Details

Date: 29 May 2022
Orbit: 752 x 791 km, 74.0° (Epoch: 28 June)

Event Time Altitude Azimuth Distance (km) Brightness Sun altitude
Rises 21:07:15 0° 335° (NNW) 3,251 9.1 -10.9°
Reaches altitude 10° 21:09:39 10° 334° (NNW) 2,314 8.0 -11.2°
Maximum altitude 21:14:53 77° 250° (WSW) 784 4.1 -11.7°
Enters shadow 21:19:12 15° 165° (SSE) 1,956 5.5 -12.1°
